Location: *
(46.1866°S, 178.5290°W)
Time: 17:17:13
(UTC+00:00)

Cosmos 2292 Rocket - Pass Details

Date: 19 May 2021
Orbit: 379 x 1447 km, 83.0° (Epoch: 17 June)

Event Time Altitude Azimuth Distance (km) Brightness Sun altitude
Rises 06:11:48 0° 348° (NNW) 2,897 7.3 -17.7°
Reaches altitude 10° 06:13:45 10° 346° (NNW) 2,125 6.6 -18.1°
Maximum altitude 06:18:31 75° 260° (W) 872 4.3 -18.9°
Drops below altitude 10° 06:25:04 10° 174° (S) 2,880 6.8 -20.0°
Sets 06:28:04 0° 172° (S) 4,012 7.5 -20.5°
